OTB-3-GAZELLE

Satellite information

Favourite Embed

Satellite Type and Status

PAYLOADIN ORBIT

Key statistics

Satellite OTB-3-GAZELLE at a glance.

Uptime

1164

Days in orbit

Revolutions

≈ 14.4

Per day

Orbit

SSO

Sun Synchronous Orbit

Inclination

98.4

Latest

Satellite identification and parameters

Extended collection of information and parameters for OTB-3-GAZELLE.

Object identification

Identified? True

Debris? False

Object name: OTB-3-GAZELLE

International designator: 2022-127A

Object number (NORAD): 54023

Object ID (CCSDS): 54023

Country: UNITED STATES OF AMERICA (US)

Current information (Y/N): Y

RCS size: MEDIUM

Orbital parameters

Period: 99.819 minutes

Inclination: 98.3821 deg

SMA: 7128.037 km

Apoapsis: 759.753 km

Periapsis: 740.052 km

RAAN: 337.2039 deg

Eccentricy: 0.00138187

Argument of periapsis: 33.2163 deg

Mean anomaly: 326.9892 deg

Mean motion: 14.4260622 rev/day

Mean motion (dot): 0.00000189 rev/day2

B* drag term: 0.000069737485 1/REarth

Two-line elements (TLE)

Creation date: Dec. 14, 2025, 3:07 a.m.

Reference frame: TEME

Reference center: EARTH

Epoch: Dec. 13, 2025, 12:40 p.m. UTC

TLE line 0: 0 OTB-3-GAZELLE

TLE line 1: 1 54023U 22127A 25347.52806022 .00000189 00000-0 69737-4 0 9998

TLE line 2: 2 54023 98.3821 337.2039 0013819 33.2163 326.9892 14.42606220167598

Live tracking on map

Real-time ground track for satellite OTB-3-GAZELLE.

In-orbit conjunctions

There are no conjunctions computed for OTB-3-GAZELLE, at the moment. Check back to stay up to date, as we update our databases every day.

Go to all conjunctions

Associated space launch

The “It Argos Up From Here” mission will launch the General Atomics Electromagnetic Systems designed and manufactured satellite GAzelle, carrying Argos-4 Advanced Data Collection System (A-DCS) hosted payload, part of the international Argos program that collects data from thousands of sensors and transmitters located around the world.

OTB-3-GAZELLE was lifted into orbit during the mission ‘Electron | It Argos Up From Here (Argos-4)’, on board a Electron space rocket.

The launch took place on Oct. 7, 2022, 5:09 p.m. from Rocket Lab Launch Complex 1B.

For more information about the launch, click the button.

Launch to space Electron | It Argos Up From Here (Argos-4)
Electron | It Argos Up From Here (Argos-4)

Agency: N/A

Status: Launch Successful

Launch date: Oct. 7, 2022, 5:09 p.m. UTC

Rocket: Electron

Launch pad: Rocket Lab Launch Complex 1B

Location: Rocket Lab Launch Complex 1, Mahia Peninsula, New Zealand

...

Latest news about this satellite

News about space launch
Rocket Lab launches NOAA-funded satellite for wildlife tracking

Rocket Lab launched an Electron rocket Friday from its privately-run spaceport in New Zealand, boosting a 260-pound satellite into orbit on a $64 million NOAA-funded mission to relay environmental data from remote weather stations and help track global wi...

News about space launch
Rocket Lab launches Argos tracking payload

A Rocket Lab Electron rocket launched a satellite Oct. 7 carrying a payload for U.S. and French government agencies that will track wildlife and collect other sensor data.

News about space launch
Rocket Lab launches “It Argos Up From Here” mission

Rocket Lab has launched its 31st Electron rocket on the “It Argos Up From Here” mission from Rocket Lab’s private Launch Complex 1B (LC-1B), on the Mahia Peninsula in New Zealand. Liftoff occurred on Saturday, Oct. 8 at 6:09 AM NZT (17:09 UTC on Oct. 7).


Newsletter sign-up

Weekly statistics, charts and insights to help you stay on top of the space industry.